| time (UTC) | temp F | wind direction | speed MPH | gust MPH | rain 1hr in | rain 24hr in | rain mn in | humidity % | barometer mb |
| 20260508104517 | 47 | 210 | 11.0 | 15.0 | 0.00 | 0.00 | 0.00 | 47 | 1005.8 |
| 20260508103019 | 48 | 217 | 12.0 | 15.0 | 0.00 | 0.00 | 0.00 | 47 | 1005.8 |
| 20260508101517 | 46 | 217 | 10.0 | 13.0 | 0.00 | 0.00 | 0.00 | 50 | 1005.9 |
| 20260508100022 | 46 | 231 | 9.0 | 14.0 | 0.00 | 0.00 | 0.00 | 50 | 1005.9 |
| 20260508094513 | 46 | 226 | 9.0 | 13.0 | 0.00 | 0.00 | 0.00 | 48 | 1005.8 |
| 20260508093013 | 47 | 224 | 11.0 | 14.0 | 0.00 | 0.00 | 0.00 | 45 | 1005.8 |
| 20260508091510 | 48 | 207 | 12.0 | 15.0 | 0.00 | 0.00 | 0.00 | 44 | 1005.9 |
| 20260508090008 | 47 | 214 | 11.0 | 13.0 | 0.00 | 0.00 | 0.00 | 48 | 1005.9 |
| 20260508084506 | 47 | 214 | 11.0 | 15.0 | 0.00 | 0.00 | 0.00 | 50 | 1005.9 |
| 20260508083002 | 46 | 219 | 11.0 | 14.0 | 0.00 | 0.00 | 0.00 | 51 | 1006.0 |
| 20260508081501 | 46 | 208 | 11.0 | 13.0 | 0.00 | 0.00 | 0.00 | 51 | 1006.0 |
| 20260508080111 | 45 | 212 | 9.0 | 13.0 | 0.00 | 0.00 | 0.00 | 52 | 1006.2 |
| 20260508074614 | 45 | 214 | 11.0 | 14.0 | 0.00 | 0.00 | 0.00 | 53 | 1006.3 |
| 20260508073059 | 44 | 207 | 10.0 | 13.0 | 0.00 | 0.00 | 0.00 | 53 | 1006.3 |
| 20260508071554 | 44 | 209 | 10.0 | 13.0 | 0.00 | 0.00 | 0.00 | 51 | 1006.5 |
| 20260508070055 | 44 | 224 | 9.0 | 12.0 | 0.00 | 0.00 | 0.00 | 52 | 1006.6 |
| 20260508064557 | 43 | 209 | 9.0 | 12.0 | 0.00 | 0.00 | 0.00 | 54 | 1006.7 |
| 20260508063053 | 43 | 217 | 9.0 | 11.0 | 0.00 | 0.00 | 0.00 | 54 | 1006.8 |
| 20260508061548 | 44 | 210 | 8.0 | 11.0 | 0.00 | 0.00 | 0.00 | 52 | 1006.9 |
| 20260508060046 | 43 | 203 | 8.0 | 11.0 | 0.00 | 0.00 | 0.00 | 53 | 1007.0 |
| 20260508054548 | 43 | 210 | 8.0 | 10.0 | 0.00 | 0.00 | 0.00 | 54 | 1007.0 |
| 20260508053052 | 43 | 214 | 8.0 | 11.0 | 0.00 | 0.00 | 0.00 | 54 | 1007.0 |
| 20260508051546 | 43 | 217 | 8.0 | 10.0 | 0.00 | 0.00 | 0.00 | 54 | 1007.1 |
| 20260508050139 | 42 | 217 | 7.0 | 9.0 | 0.00 | 0.00 | 0.00 | 56 | 1007.1 |
| 20260508044536 | 42 | 214 | 7.0 | 9.0 | 0.00 | 0.00 | 0.00 | 57 | 1007.3 |
| 20260508043035 | 41 | 226 | 6.0 | 8.0 | 0.00 | 0.00 | 0.00 | 63 | 1007.6 |
| 20260508041534 | 41 | 229 | 6.0 | 7.0 | 0.00 | 0.00 | 0.00 | 64 | 1007.6 |
| 20260508040048 | 41 | 229 | 6.0 | 7.0 | 0.00 | 0.00 | 0.00 | 63 | 1007.7 |
| 20260508034541 | 40 | 229 | 6.0 | 7.0 | 0.00 | 0.00 | 0.00 | 63 | 1007.7 |
| 20260508033033 | 41 | 236 | 6.0 | 7.0 | 0.00 | 0.00 | 0.00 | 59 | 1007.8 |
| 20260508031534 | 42 | 229 | 6.0 | 7.0 | 0.00 | 0.00 | 0.00 | 56 | 1007.8 |
| 20260508030033 | 42 | 231 | 6.0 | 7.0 | 0.00 | 0.00 | 0.00 | 55 | 1007.8 |
| 20260508024532 | 42 | 232 | 6.0 | 7.0 | 0.00 | 0.00 | 0.00 | 55 | 1007.8 |
| 20260508023033 | 43 | 228 | 6.0 | 7.0 | 0.00 | 0.00 | 0.00 | 54 | 1007.8 |
| 20260508021533 | 44 | 221 | 4.0 | 5.0 | 0.00 | 0.00 | 0.00 | 51 | 1007.6 |
| 20260508020030 | 44 | 241 | 3.0 | 5.0 | 0.00 | 0.00 | 0.00 | 47 | 1007.6 |
| 20260508014530 | 46 | 317 | 2.0 | 3.0 | 0.00 | 0.00 | 0.00 | 44 | 1007.5 |
| 20260508013032 | 50 | 317 | 0.0 | 1.0 | 0.00 | 0.00 | 0.00 | 40 | 1007.5 |
| 20260508011529 | 56 | 317 | 1.0 | 3.0 | 0.00 | 0.00 | 0.00 | 31 | 1007.4 |
| 20260508010031 | 57 | 341 | 1.0 | 4.0 | 0.00 | 0.00 | 0.00 | 31 | 1007.3 |
| 20260508004532 | 58 | 329 | 4.0 | 7.0 | 0.00 | 0.00 | 0.00 | 29 | 1007.3 |
| 20260508003027 | 59 | 322 | 8.0 | 10.0 | 0.00 | 0.00 | 0.00 | 27 | 1007.3 |
| 20260508001526 | 60 | 342 | 5.0 | 10.0 | 0.00 | 0.00 | 0.00 | 27 | 1007.3 |
| 20260508000029 | 60 | 297 | 8.0 | 12.0 | 0.00 | 0.00 | 0.00 | 26 | 1007.4 |
| 20260507234540 | 60 | 302 | 5.0 | 16.0 | 0.00 | 0.00 | 0.00 | 26 | 1007.4 |
| 20260507233027 | 60 | 336 | 4.0 | 13.0 | 0.00 | 0.00 | 0.00 | 27 | 1007.6 |
| 20260507231525 | 61 | 342 | 9.0 | 16.0 | 0.00 | 0.00 | 0.00 | 25 | 1007.6 |
| 20260507230023 | 60 | 238 | 5.0 | 16.0 | 0.00 | 0.00 | 0.00 | 25 | 1007.6 |
| 20260507224528 | 61 | 324 | 11.0 | 17.0 | 0.00 | 0.00 | 0.00 | 25 | 1007.6 |
| 20260507223021 | 61 | 325 | 10.0 | 18.0 | 0.00 | 0.00 | 0.00 | 25 | 1007.7 |
| 20260507221529 | 60 | 336 | 2.0 | 11.0 | 0.00 | 0.00 | 0.00 | 25 | 1007.9 |
| 20260507220021 | 61 | 311 | 8.0 | 18.0 | 0.00 | 0.00 | 0.00 | 26 | 1007.9 |
| 20260507214519 | 62 | 278 | 13.0 | 18.0 | 0.00 | 0.00 | 0.00 | 27 | 1007.9 |
| 20260507213023 | 61 | 329 | 7.0 | 14.0 | 0.00 | 0.00 | 0.00 | 26 | 1008.1 |
| 20260507211517 | 61 | 347 | 7.0 | 19.0 | 0.00 | 0.00 | 0.00 | 26 | 1008.3 |
| 20260507210021 | 61 | 305 | 12.0 | 17.0 | 0.00 | 0.00 | 0.00 | 27 | 1008.4 |
| 20260507204513 | 60 | 328 | 7.0 | 15.0 | 0.00 | 0.00 | 0.00 | 27 | 1008.5 |
| 20260507203012 | 61 | 311 | 12.0 | 19.0 | 0.00 | 0.00 | 0.00 | 26 | 1008.6 |
| 20260507201509 | 61 | 284 | 9.0 | 16.0 | 0.00 | 0.00 | 0.00 | 27 | 1008.8 |
| 20260507200011 | 60 | 298 | 9.0 | 21.0 | 0.00 | 0.00 | 0.00 | 28 | 1009.0 |
| 20260507194523 | 60 | 296 | 13.0 | 20.0 | 0.00 | 0.00 | 0.00 | 26 | 1008.9 |
| 20260507193007 | 60 | 325 | 12.0 | 21.0 | 0.00 | 0.00 | 0.00 | 26 | 1009.1 |
| 20260507191506 | 59 | 318 | 12.0 | 23.0 | 0.00 | 0.00 | 0.00 | 23 | 1009.2 |
| 20260507190011 | 59 | 309 | 8.0 | 19.0 | 0.00 | 0.00 | 0.00 | 26 | 1009.1 |
| 20260507184503 | 59 | 322 | 11.0 | 22.0 | 0.00 | 0.00 | 0.00 | 24 | 1009.2 |
| 20260507183002 | 59 | 252 | 9.0 | 16.0 | 0.00 | 0.00 | 0.00 | 26 | 1009.3 |
| 20260507181603 | 59 | 320 | 15.0 | 23.0 | 0.00 | 0.00 | 0.00 | 26 | 1009.5 |
| 20260507180103 | 59 | 310 | 10.0 | 16.0 | 0.00 | 0.00 | 0.00 | 27 | 1009.5 |
| 20260507174603 | 56 | 339 | 8.0 | 15.0 | 0.00 | 0.00 | 0.00 | 30 | 1009.6 |
| 20260507173100 | 57 | 347 | 10.0 | 27.0 | 0.00 | 0.00 | 0.00 | 35 | 1009.8 |
| 20260507171549 | 55 | 259 | 7.0 | 12.0 | 0.00 | 0.00 | 0.00 | 35 | 1010.1 |
| 20260507170047 | 55 | 288 | 6.0 | 12.0 | 0.00 | 0.00 | 0.00 | 36 | 1010.3 |
| 20260507164600 | 54 | 341 | 2.0 | 7.0 | 0.00 | 0.00 | 0.00 | 39 | 1010.3 |
| 20260507163038 | 53 | 347 | 7.0 | 17.0 | 0.00 | 0.00 | 0.00 | 38 | 1010.5 |
| 20260507161548 | 52 | 60 | 1.0 | 11.0 | 0.00 | 0.00 | 0.00 | 41 | 1010.6 |
| 20260507160032 | 51 | 329 | 0.0 | 6.0 | 0.00 | 0.00 | 0.00 | 43 | 1010.6 |
| 20260507154526 | 51 | 305 | 4.0 | 9.0 | 0.00 | 0.00 | 0.00 | 42 | 1010.7 |
| 20260507153026 | 50 | 39 | 2.0 | 5.0 | 0.00 | 0.00 | 0.00 | 44 | 1010.7 |
| 20260507151517 | 49 | 2 | 3.0 | 7.0 | 0.00 | 0.00 | 0.00 | 46 | 1010.6 |
| 20260507150014 | 49 | 7 | 0.0 | 6.0 | 0.00 | 0.00 | 0.00 | 48 | 1010.7 |
| 20260507144509 | 47 | 82 | 3.0 | 7.0 | 0.00 | 0.00 | 0.00 | 53 | 1010.7 |
| 20260507143006 | 47 | 111 | 2.0 | 6.0 | 0.00 | 0.00 | 0.00 | 54 | 1010.8 |
| 20260507141604 | 46 | 118 | 2.0 | 6.0 | 0.00 | 0.00 | 0.00 | 55 | 1010.8 |
| 20260507140055 | 45 | 87 | 1.0 | 6.0 | 0.00 | 0.00 | 0.00 | 56 | 1011.0 |
| 20260507134551 | 43 | 60 | 1.0 | 4.0 | 0.00 | 0.00 | 0.00 | 56 | 1011.0 |
| 20260507133050 | 43 | 79 | 0.0 | 3.0 | 0.00 | 0.00 | 0.00 | 60 | 1010.9 |
| 20260507131542 | 41 | 144 | 1.0 | 4.0 | 0.00 | 0.00 | 0.00 | 63 | 1010.8 |
| 20260507130042 | 39 | 134 | 1.0 | 3.0 | 0.00 | 0.00 | 0.00 | 65 | 1010.9 |
| 20260507124539 | 38 | 120 | 1.0 | 3.0 | 0.00 | 0.00 | 0.00 | 65 | 1010.8 |
| 20260507123029 | 37 | 236 | 0.0 | 2.0 | 0.00 | 0.00 | 0.00 | 68 | 1010.9 |
| 20260507121524 | 35 | 236 | 0.0 | 1.0 | 0.00 | 0.00 | 0.00 | 72 | 1010.9 |
| 20260507120020 | 32 | 236 | 0.0 | 0.0 | 0.00 | 0.00 | 0.00 | 77 | 1010.8 |
| 20260507114516 | 31 | 236 | 0.0 | 4.0 | 0.00 | 0.00 | 0.00 | 77 | 1010.7 |
| 20260507113033 | 30 | 236 | 1.0 | 4.0 | 0.00 | 0.00 | 0.00 | 78 | 1010.7 |
| 20260507111509 | 30 | 236 | 3.0 | 5.0 | 0.00 | 0.00 | 0.00 | 78 | 1010.6 |
| 20260507110010 | 29 | 211 | 3.0 | 5.0 | 0.00 | 0.00 | 0.00 | 78 | 1010.8 |